Location: Treviso
(45.6669°N, 12.2430°E)
Time: 12:42:41
(UTC+01:00)

ISS - Pass Details

Date: 21 February 2024
Orbit: 415 x 417 km, 51.6° (Epoch: 21 February)

Event Time Altitude Azimuth Distance (km) Brightness Sun altitude
Exits shadow 04:32:56 23° 94° (E) 947 -1.3 -27.1°
Drops below altitude 10° 04:34:33 10° 75° (ENE) 1,496 0.0 -26.8°
Sets 04:36:45 0° 66° (ENE) 2,363 1.3 -26.4°
